Theta_e
332 333 334 335 337 340 345 348 348 349 348 348 346 349 350 350 351 351 350 349 347 344 342 344 345 345 345 345 345 346 346 345 344 343 344 343 342 343 342 343 343 342 341 341 340 340 340 340 339 339 338 337 336 327 328 328 328 330 327 330 334 330
331 332 333 335 338 339 342 346 342 342 344 345 345 347 346 345 349 343 349 346 343 344 340 339 342 346 343 345 345 347 346 345 344 344 344 343 343 342 342 342 343 342 341 341 340 331 333 338 340 340 337 337 327 325 328 328 327 328 328 327 331 332
333 332 333 334 337 340 341 342 343 343 343 346 345 344 342 343 341 339 343 343 342 340 337 341 340 342 342 345 345 344 346 345 345 346 345 344 343 343 342 343 342 342 340 340 330 326 325 322 326 337 334 328 325 323 327 327 327 328 328 328 328 337
333 333 333 333 336 336 340 341 343 344 344 344 342 342 340 341 340 340 341 340 339 338 338 339 344 344 348 341 343 345 346 345 346 346 345 343 343 343 343 342 341 341 340 333 325 325 325 323 323 323 325 326 324 323 326 325 326 327 327 332 330 337
334 333 333 332 336 335 340 340 340 342 343 342 344 344 343 339 337 339 340 338 337 338 335 337 338 338 333 336 338 338 339 340 341 340 343 336 337 338 337 333 333 334 329 328 325 323 324 323 324 324 323 324 325 323 325 327 326 325 326 327 330 338
333 333 333 332 332 336 339 335 335 338 339 337 340 342 339 336 336 338 336 338 336 335 338 338 336 334 332 334 333 336 339 339 337 336 338 336 335 333 332 332 332 330 329 327 326 325 323 325 322 322 323 323 324 323 325 325 325 325 327 328 330 338
332 331 332 335 333 333 331 331 331 335 336 331 334 334 332 334 335 334 334 337 333 335 339 339 337 333 333 334 334 335 338 340 338 335 334 335 334 332 330 327 325 324 323 325 326 325 323 324 322 323 322 323 323 324 324 325 324 325 326 328 332 339
330 331 330 333 331 331 330 332 335 338 334 341 334 329 332 333 335 336 334 335 338 338 338 335 334 334 333 333 332 336 340 339 338 337 333 331 332 330 328 325 324 322 324 325 325 325 324 325 324 322 324 323 323 323 324 324 325 325 326 328 329 337
330 330 329 331 331 329 330 331 333 334 334 341 331 333 335 333 334 335 335 339 341 339 337 334 333 333 334 333 333 334 338 339 338 336 333 329 329 330 328 326 324 323 322 323 322 322 324 324 324 323 323 323 324 324 324 324 324 325 326 327 328 332
326 329 328 329 328 328 327 328 329 331 332 337 332 333 334 330 330 332 332 336 338 338 335 332 333 334 333 333 333 336 335 337 337 336 334 331 328 327 327 326 325 324 324 322 323 322 324 323 324 325 324 324 325 326 325 324 324 325 326 327 328 330
325 328 324 326 324 326 326 325 328 332 333 330 334 334 332 330 330 331 332 333 336 335 333 331 332 334 334 333 335 337 333 335 335 335 334 332 331 329 327 326 326 324 322 322 322 323 324 323 323 325 326 326 326 326 325 325 325 325 326 327 328 329
317 322 323 324 327 324 323 325 326 326 328 328 331 328 331 331 332 330 333 332 334 337 335 331 331 333 333 330 333 336 334 333 333 333 335 334 333 333 330 329 328 327 326 324 324 323 323 323 323 325 326 327 327 325 324 324 325 325 326 327 327 328
313 314 317 319 321 320 320 322 321 321 325 330 328 327 327 329 331 332 333 334 333 337 337 332 330 330 332 331 332 333 332 334 333 333 333 335 335 334 333 332 331 330 328 326 326 325 325 323 324 325 326 327 327 326 325 325 324 325 325 326 327 328
313 313 314 316 318 317 316 317 319 318 326 323 323 324 328 325 328 329 333 334 334 336 334 335 333 331 333 334 334 332 331 331 333 333 333 333 333 333 333 333 332 330 332 329 328 327 324 322 323 325 326 327 326 326 324 324 324 325 325 326 327 327
317 316 317 317 316 314 314 314 312 313 316 319 319 320 320 321 322 326 331 333 335 336 335 334 334 334 333 334 335 334 333 333 334 333 333 333 333 332 332 332 332 331 330 329 329 328 327 324 323 324 326 326 327 326 324 324 324 325 325 325 326 327
312 311 312 314 311 313 312 313 316 319 313 315 316 317 318 320 322 324 325 324 329 335 335 335 334 332 330 331 331 331 334 335 336 334 333 332 331 331 331 331 331 331 330 329 330 329 328 326 323 324 326 325 326 326 324 324 324 325 326 326 325 326
310 311 311 312 310 310 310 311 311 312 313 314 313 314 316 319 323 323 322 323 325 329 329 336 336 336 332 331 330 328 330 330 333 336 335 333 332 332 332 332 330 332 331 330 331 331 328 325 323 323 325 325 325 326 325 324 324 324 327 325 325 325
311 311 311 311 310 311 312 313 312 315 320 315 315 317 319 321 321 320 321 322 323 326 329 330 332 334 335 332 332 332 331 330 331 330 332 334 333 333 332 332 330 330 333 333 332 331 330 326 325 324 323 324 325 325 325 325 324 326 324 325 325 325
311 310 310 311 313 313 312 312 311 312 313 313 314 314 316 318 318 319 319 319 322 324 325 324 327 329 332 332 331 331 329 331 332 332 331 331 331 332 332 331 330 331 333 333 331 332 329 327 328 326 325 323 325 325 326 325 325 324 324 325 326 327
309 310 309 311 312 311 311 311 310 309 311 312 312 316 314 313 315 316 319 318 319 320 322 322 321 323 325 327 326 327 329 330 324 328 328 329 330 331 331 331 332 332 331 332 334 333 330 327 326 326 324 324 324 324 325 325 324 324 324 324 325 326
309 309 311 311 310 310 308 306 307 307 307 307 311 311 311 311 313 314 314 316 317 318 317 319 319 318 318 324 322 324 323 325 327 329 329 328 330 331 331 329 330 327 326 326 329 333 333 329 324 322 324 323 323 324 324 323 323 324 324 324 323 324
309 310 310 311 312 311 306 307 307 308 305 308 310 308 308 309 311 315 313 312 312 311 311 314 318 317 317 316 318 320 321 322 323 324 328 329 329 331 332 331 329 326 327 326 325 329 330 327 322 319 319 319 321 322 323 322 321 323 324 323 323 323
310 311 310 312 312 310 308 308 307 305 309 307 306 308 307 312 315 310 310 311 312 310 311 311 314 318 317 315 315 316 316 317 320 322 321 322 324 324 326 329 329 327 324 326 326 328 327 328 323 321 319 319 314 316 319 319 320 321 322 323 323 323
310 311 311 313 316 310 309 307 308 308 308 307 307 312 307 308 308 310 310 310 311 309 311 311 313 315 314 313 313 314 313 315 316 318 319 319 320 321 322 326 329 330 329 324 324 325 329 328 325 322 315 316 314 313 311 316 318 320 321 321 322 323
311 311 311 315 313 310 310 309 311 311 310 308 308 305 306 307 306 314 310 308 309 310 311 310 311 314 315 312 312 312 314 313 315 315 316 316 317 318 320 322 325 328 328 326 325 325 324 327 327 327 321 315 312 311 312 313 314 316 319 319 320 321
310 311 312 312 310 311 310 309 309 308 306 304 304 304 304 304 306 307 306 307 309 309 310 310 310 312 316 315 312 312 312 314 314 316 316 314 314 316 317 318 321 325 326 327 327 324 325 325 326 326 326 324 318 314 313 317 316 312 317 320 321 321
311 311 312 310 310 311 308 309 310 309 307 306 306 304 302 302 305 305 305 307 308 309 310 310 310 310 312 313 312 311 312 312 314 314 315 314 314 314 316 318 319 319 322 326 327 323 323 325 325 325 326 325 324 324 324 317 312 312 312 314 318 321
311 312 311 310 310 310 308 308 308 307 308 306 307 307 303 303 303 308 304 307 308 308 308 310 310 310 311 313 312 311 310 311 313 315 315 313 313 313 315 316 317 317 318 320 323 323 323 324 322 323 323 323 323 324 325 324 323 319 316 314 316 319
311 311 310 310 310 308 310 309 308 308 308 307 307 305 306 309 306 308 305 307 307 307 307 308 309 311 310 312 314 310 309 310 311 312 314 312 312 313 313 313 314 315 315 316 318 322 322 321 323 322 323 323 325 324 324 323 321 322 318 316 316 317
310 310 310 310 310 308 309 311 308 307 308 306 306 305 305 306 305 304 305 305 305 306 307 308 307 308 309 309 309 310 309 309 309 311 312 309 310 311 311 312 312 313 314 314 315 317 317 319 321 321 322 322 321 322 322 322 323 323 322 320 316 317
311 310 310 310 309 307 309 310 309 308 308 306 305 305 304 303 304 303 304 303 304 305 307 308 308 307 308 309 309 310 308 308 309 312 310 308 308 309 309 309 310 311 311 311 312 313 313 314 316 316 317 319 319 320 319 318 317 319 319 318 318 318
310 309 309 309 308 307 309 309 309 309 308 307 305 305 305 305 305 305 303 304 303 306 307 307 307 306 306 307 307 306 307 306 308 306 306 307 307 307 308 308 308 310 309 310 311 311 311 310 311 312 313 315 317 319 318 319 321 322 320 320 319 318
310 309 309 309 308 307 308 309 309 309 309 308 306 305 305 305 305 305 304 304 303 305 304 307 306 306 307 306 306 305 305 305 306 308 307 307 306 307 306 306 307 307 307 308 308 308 308 308 309 310 310 312 314 315 317 320 322 322 323 322 320 318
311 310 309 309 308 307 308 309 309 309 309 309 306 306 304 305 305 305 305 305 306 306 305 307 305 305 306 305 305 307 306 304 304 305 306 305 305 305 306 307 306 306 306 306 306 307 307 307 308 308 309 309 311 312 314 316 318 320 320 320 319 318
311 310 309 309 308 308 308 309 309 309 308 309 307 306 305 306 305 305 305 305 305 304 305 306 305 305 306 304 305 304 304 303 304 304 304 303 305 304 304 306 306 305 306 306 305 306 305 305 306 306 306 307 309 310 311 312 314 316 319 319 319 320
312 311 309 309 308 308 309 309 309 308 307 309 309 307 306 307 305 305 306 305 305 304 305 305 304 305 305 304 304 305 304 303 303 303 303 303 302 303 303 303 302 302 302 307 304 303 303 303 304 304 304 305 305 306 308 310 311 311 313 314 316 318
313 312 310 310 309 308 309 309 308 308 307 306 307 306 305 305 305 304 306 305 305 305 304 304 305 305 304 303 303 303 303 303 302 302 302 303 303 302 301 301 301 301 300 302 303 302 302 302 302 303 303 303 303 304 305 307 307 308 308 310 313 315
Wind_Speed
2 2 3 2 2 2 3 7 7 8 9 9 9 11 8 9 7 7 7 7 7 4 3 4 7 5 11 8 9 12 12 13 13 12 13 12 11 10 10 9 7 5 4 7 8 9 7 8 9 9 7 7 7 4 5 4 3 3 2 3 3 4
2 1 1 1 1 1 2 4 3 3 3 4 5 8 7 4 6 3 7 6 4 3 3 3 2 7 5 7 9 12 13 13 13 13 13 12 11 10 10 9 8 6 4 4 8 4 4 7 9 9 7 6 5 3 4 4 3 4 3 2 3 4
1 1 1 0 1 2 2 2 3 3 2 4 3 3 2 2 1 2 3 2 3 3 3 3 4 5 3 10 9 11 12 13 13 13 13 13 12 11 10 9 8 6 4 2 4 2 3 4 4 8 5 4 3 3 4 4 4 4 3 2 2 6
2 1 0 0 0 2 2 2 3 3 3 1 2 2 2 2 1 2 2 3 2 4 1 4 6 8 8 4 6 10 12 12 12 13 14 10 12 11 11 10 7 5 3 2 3 3 2 3 4 3 3 2 2 2 4 3 3 3 3 3 3 7
1 1 1 1 1 1 2 2 1 2 2 2 2 2 3 4 3 3 2 4 2 3 2 4 4 3 3 1 1 3 4 4 4 4 9 3 4 5 6 3 3 2 1 0 0 2 2 2 4 3 2 2 2 2 4 4 3 3 3 3 4 8
2 2 2 1 1 2 2 1 2 1 2 1 2 2 1 2 3 6 2 4 1 1 2 4 4 5 3 3 1 2 4 3 3 3 3 4 3 4 3 3 3 2 1 0 0 0 1 0 3 3 2 3 2 2 4 5 4 3 3 3 4 10
3 2 1 2 2 2 3 1 2 2 3 2 2 2 1 1 2 6 3 2 4 4 3 3 4 6 5 3 3 3 4 4 4 3 3 4 3 4 4 4 2 2 1 1 1 1 1 1 1 1 2 2 2 2 3 5 5 4 4 4 5 11
4 3 2 3 3 3 2 2 2 1 2 3 3 2 2 1 2 5 6 4 5 4 4 3 3 2 5 2 3 4 5 5 4 4 3 2 3 2 3 3 2 1 2 2 1 1 0 0 0 1 1 2 2 3 3 5 5 4 4 5 5 8
4 3 3 3 3 3 2 2 2 2 2 3 2 2 2 3 3 2 3 3 5 4 3 3 4 4 4 6 3 4 4 5 5 4 4 3 2 3 3 3 3 2 2 2 1 2 1 1 1 1 2 1 2 3 3 4 5 5 5 5 5 6
4 5 3 3 4 3 2 3 2 2 2 1 2 3 3 3 2 3 2 2 3 3 4 5 5 5 5 4 5 5 3 4 5 4 5 5 4 3 3 2 2 2 2 2 2 3 1 2 2 2 3 3 3 4 5 5 5 6 6 5 5 5
4 3 3 4 3 3 2 2 1 1 2 3 3 3 3 3 3 3 3 3 3 3 4 4 3 3 3 1 4 4 5 4 4 4 4 5 4 5 3 3 3 3 2 2 3 3 2 3 3 3 3 3 4 3 4 5 5 6 6 6 6 5
4 4 4 4 3 3 2 2 2 1 3 2 2 2 2 3 3 2 2 3 2 3 2 3 4 3 4 5 6 4 4 4 4 4 5 5 5 4 5 4 4 3 3 3 4 3 3 3 4 5 3 4 4 5 5 5 5 6 6 5 6 5
5 4 5 5 4 3 2 2 2 2 1 1 1 2 2 1 2 2 2 2 2 2 3 2 4 4 4 3 4 3 4 4 4 3 4 5 5 4 4 4 2 2 2 1 1 2 2 3 4 5 4 4 4 4 5 5 5 4 5 5 5 5
5 6 5 4 3 3 3 2 1 1 1 2 2 1 1 2 2 1 2 1 1 1 1 2 2 3 3 3 4 3 3 3 3 3 3 3 4 4 4 4 3 3 3 3 3 3 3 3 5 4 4 4 3 5 5 5 5 6 5 5 5 5
5 5 5 4 4 3 2 3 2 2 2 2 3 3 2 2 3 2 1 1 1 0 1 0 0 2 3 2 3 4 5 4 4 3 3 3 3 2 1 0 1 3 2 3 3 3 3 4 4 5 6 5 5 5 4 6 5 5 5 6 5 5
5 6 5 5 4 4 3 3 4 4 4 3 3 3 3 3 2 3 3 3 2 1 0 1 1 0 2 2 1 0 1 2 1 1 2 2 2 4 4 3 3 3 4 5 4 5 4 4 4 6 6 5 5 5 6 5 6 6 6 5 5 5
8 8 6 5 4 4 4 4 4 4 4 3 4 4 3 3 4 4 3 4 3 2 2 1 2 2 1 2 2 2 1 3 2 3 3 3 3 2 3 3 4 4 3 3 4 5 3 2 4 6 6 6 6 6 6 6 6 7 5 5 6 6
6 7 7 7 5 5 4 4 5 4 3 5 3 3 4 4 5 5 4 4 3 3 3 4 2 2 1 2 2 2 2 2 4 5 2 2 2 2 2 2 3 2 2 3 4 4 4 1 3 5 5 7 7 6 7 6 6 5 6 7 6 6
6 5 5 6 5 5 6 5 5 4 5 4 4 4 3 5 4 4 4 3 4 4 4 4 4 3 3 4 4 4 2 2 3 3 1 2 0 2 3 3 3 3 1 2 5 5 4 2 3 4 4 6 6 8 7 6 5 6 7 8 8 7
5 5 4 5 5 6 5 5 6 5 6 4 3 4 4 4 3 5 3 3 4 4 3 4 3 2 2 3 4 3 1 1 1 0 2 2 2 2 2 2 3 3 3 2 3 2 2 3 2 2 3 3 4 4 6 7 6 7 7 6 7 5
5 4 6 6 4 5 5 3 3 3 5 1 2 2 3 3 4 3 3 3 3 4 3 4 3 3 5 5 4 3 1 2 2 1 1 2 1 2 3 3 3 1 2 2 2 1 2 1 2 4 4 1 3 5 5 4 6 6 7 7 6 6
6 5 5 5 4 4 4 5 5 5 3 2 3 3 1 1 2 2 3 3 3 3 4 4 3 3 3 4 4 4 3 2 1 0 1 1 0 1 1 4 3 3 3 2 3 1 2 3 0 2 4 2 2 3 5 5 5 6 6 5 5 5
7 7 5 4 5 4 2 3 3 3 5 3 0 1 2 1 1 3 3 2 1 3 4 4 3 3 4 3 3 3 3 3 3 2 3 4 2 3 2 1 4 3 1 2 1 2 2 2 2 2 4 1 2 2 2 2 3 5 6 5 4 5
7 6 6 5 4 3 3 4 5 5 3 3 3 2 3 3 3 3 3 2 2 3 4 3 3 4 3 3 3 3 2 3 3 3 4 5 5 5 4 3 3 2 1 0 0 2 1 3 3 4 3 5 2 2 4 5 4 5 6 7 6 7
8 8 6 5 5 5 6 5 6 5 4 4 3 4 3 2 2 1 2 2 1 2 2 3 2 2 3 3 3 3 4 3 4 3 4 5 4 4 3 3 2 2 1 1 2 1 0 2 4 4 3 1 1 1 4 2 0 4 3 3 6 7
6 6 7 5 6 6 7 8 7 7 5 3 3 2 2 4 2 2 3 0 1 1 1 3 2 2 3 3 4 3 3 4 3 5 5 4 3 4 5 5 3 2 2 0 1 1 2 2 3 5 3 1 0 0 2 2 1 4 4 4 3 4
8 7 6 6 6 6 6 7 9 10 8 8 7 3 2 1 3 1 0 1 1 1 1 3 3 3 3 4 4 4 4 4 4 4 3 4 6 5 4 4 3 5 4 2 2 3 4 2 1 2 3 3 3 1 2 1 1 2 4 4 1 4
7 7 6 6 7 8 9 8 7 6 6 7 7 7 4 3 1 1 3 1 1 1 3 1 2 3 3 3 4 4 4 4 5 4 5 6 5 3 4 3 4 3 4 5 5 4 3 4 4 3 1 2 4 3 3 2 2 2 2 4 6 3
7 7 6 7 8 7 9 9 8 7 6 4 4 4 3 2 3 1 4 1 1 2 3 2 2 3 3 4 3 4 4 5 5 5 5 5 5 5 6 5 7 7 6 5 5 4 4 5 5 4 4 1 2 3 3 3 3 4 4 3 6 5
8 6 7 8 8 8 7 8 8 7 8 6 4 3 4 4 4 2 4 2 1 1 2 3 3 2 4 3 4 4 5 5 4 4 4 4 4 6 5 5 4 4 5 5 4 4 4 3 3 3 3 3 4 4 3 2 2 3 4 6 7 7
9 7 7 10 9 9 7 8 9 8 9 8 6 7 6 4 3 2 4 3 3 2 0 1 1 2 3 3 4 4 4 4 4 3 4 5 5 4 4 4 4 4 5 5 5 5 5 4 4 4 5 4 4 4 5 4 3 2 3 5 6 6
7 8 8 9 9 8 8 8 7 9 9 9 9 7 8 8 7 6 4 4 2 1 1 1 1 1 2 2 3 4 3 4 4 4 5 4 3 3 3 3 4 4 4 4 4 5 5 6 6 5 5 5 4 4 3 3 4 5 6 6 7 9
11 9 10 10 10 9 8 8 9 9 8 8 8 8 8 7 6 7 6 4 4 4 2 1 1 1 1 2 3 4 4 4 4 4 4 5 4 4 4 4 4 4 5 5 4 4 5 4 4 5 4 4 4 5 4 5 5 5 5 5 6 9
14 11 9 9 10 9 9 9 8 9 9 9 8 8 7 7 7 6 6 7 7 6 6 5 4 4 4 3 3 3 4 3 2 3 4 4 4 4 4 5 5 5 5 4 4 4 4 4 4 4 3 4 5 5 5 5 6 5 6 7 6 5
12 11 11 12 10 10 9 7 8 8 9 8 9 8 8 7 7 6 5 5 5 4 5 5 5 3 3 3 4 3 3 3 2 3 3 3 3 4 4 4 4 4 4 4 4 5 5 5 5 5 4 4 4 4 5 5 5 6 6 7 8 7
16 14 13 12 11 12 10 8 7 9 9 9 8 8 7 5 6 7 7 7 7 5 6 4 2 2 2 3 4 4 3 3 3 3 3 3 4 4 3 4 3 3 3 2 3 4 3 3 5 4 4 4 4 4 4 5 5 5 6 6 7 8
12 10 12 12 12 11 10 8 8 8 7 7 9 10 10 9 8 6 6 7 7 6 4 4 4 3 4 2 3 3 3 3 3 3 3 3 3 4 3 3 3 3 2 1 2 3 2 3 3 3 4 4 4 4 4 4 4 5 5 6 6 6
Wind_Direction
83 82 78 74 72 93 140 142 154 163 166 172 168 161 152 156 151 152 139 137 130 119 136 154 146 151 157 144 151 154 149 147 141 146 141 139 145 155 163 170 166 176 174 141 128 121 111 93 86 85 74 58 58 89 124 122 129 125 148 164 158 191
106 101 71 62 106 77 100 108 93 117 161 180 194 172 166 157 162 139 144 133 134 129 119 103 171 155 148 155 158 159 153 149 145 146 140 143 151 159 165 168 172 173 190 166 128 97 99 88 88 87 79 60 55 88 126 131 131 150 159 185 169 208
162 187 126 272 82 136 109 89 115 131 155 205 178 174 169 133 104 117 135 131 109 94 129 139 146 159 175 164 161 161 153 151 147 148 147 151 155 159 163 169 175 172 178 171 81 94 99 103 83 86 72 55 58 81 127 134 151 161 170 188 181 213
180 211 166 232 78 93 130 140 153 145 140 138 161 185 136 109 86 187 140 98 101 111 240 137 158 170 175 174 160 156 163 155 152 150 152 153 157 158 162 165 173 179 159 67 101 88 75 96 99 103 66 83 80 106 140 145 159 170 163 199 188 220
163 177 212 269 146 99 109 136 110 136 141 113 121 188 123 168 195 157 126 127 116 142 204 143 132 114 48 57 175 151 154 152 139 150 150 128 137 154 147 151 160 139 66 56 41 100 89 82 102 104 111 119 124 140 150 151 163 175 182 208 195 216
165 191 211 191 148 213 138 117 126 146 99 51 105 110 108 162 151 125 101 114 201 197 160 120 105 92 109 191 224 199 152 132 147 140 134 133 131 127 135 147 163 164 155 81 320 9 89 110 116 117 122 120 155 158 162 166 170 183 193 213 213 214
140 142 162 126 95 90 115 137 131 138 126 92 97 120 148 171 148 119 172 149 143 220 137 135 134 133 145 204 176 181 172 158 158 152 133 137 148 146 143 150 165 163 151 179 272 340 41 50 110 130 140 135 173 177 170 178 179 186 197 210 220 218
141 136 133 112 110 105 104 116 154 142 118 154 129 118 109 92 110 139 154 181 203 164 156 135 95 120 163 205 206 209 168 157 171 161 136 136 146 155 146 147 151 147 184 212 240 265 6 335 150 133 157 147 171 193 182 188 184 192 199 209 221 224
143 138 133 128 112 104 90 79 73 129 173 153 105 117 106 105 101 112 128 157 159 153 144 140 148 168 194 177 203 246 177 163 179 174 143 159 164 162 157 151 160 181 214 236 255 274 238 237 220 166 169 140 190 199 195 195 198 189 202 210 215 238
147 147 134 110 116 116 118 111 135 143 167 145 126 133 115 95 107 117 110 108 140 142 148 159 166 176 204 185 191 212 199 165 175 181 160 166 170 152 159 159 152 177 233 239 251 261 268 267 251 212 192 147 217 212 201 196 195 197 198 202 215 229
128 128 119 115 118 118 117 125 138 68 53 112 142 135 120 121 131 130 134 116 119 146 155 154 142 144 194 222 211 187 178 169 167 189 170 158 156 156 159 169 171 177 213 233 244 255 243 261 264 249 218 188 187 219 233 209 196 191 191 204 205 216
116 126 121 120 116 117 118 145 140 111 128 126 124 97 118 138 137 132 125 112 143 157 183 127 130 161 161 177 233 181 174 172 171 175 176 162 148 150 157 177 177 185 196 199 227 227 227 241 260 257 233 233 174 191 220 229 200 194 198 201 205 213
112 112 121 127 131 130 125 114 118 128 148 135 94 76 80 100 106 126 139 145 160 184 176 174 153 179 177 167 227 217 198 196 181 179 174 170 152 139 137 144 170 152 157 175 233 251 236 235 251 251 238 238 189 211 198 209 208 202 206 205 209 214
115 118 122 126 129 124 120 113 101 70 99 104 90 100 95 36 70 81 138 164 179 183 162 172 156 170 174 192 208 201 229 234 190 182 183 162 160 165 161 156 163 161 193 197 216 219 194 229 243 254 240 229 186 215 190 200 200 205 204 207 208 210
124 122 124 132 127 122 120 111 86 68 75 106 94 84 61 52 36 39 56 359 317 272 116 45 147 177 198 178 186 185 198 211 208 179 173 187 186 160 132 118 140 187 203 244 236 231 213 228 231 231 233 219 207 198 191 201 200 206 205 211 200 216
132 133 138 137 136 132 120 96 86 97 94 90 82 87 94 89 77 51 34 13 18 349 185 156 223 202 161 139 91 264 277 226 186 107 163 165 182 195 183 203 237 261 250 259 266 256 220 229 227 233 228 216 222 188 200 195 201 206 213 196 208 212
145 142 140 131 126 103 82 75 76 83 95 84 84 93 87 99 77 64 43 43 26 25 23 282 194 221 152 143 206 242 305 29 334 228 173 178 202 214 183 200 216 187 206 263 270 277 287 266 239 230 218 213 217 208 196 197 201 209 194 202 214 214
150 147 145 140 124 109 89 79 71 68 74 73 70 92 104 78 67 65 59 49 47 47 43 38 36 8 354 159 202 210 100 173 337 338 314 175 189 127 73 354 292 233 156 233 241 252 258 252 260 239 221 215 216 204 211 202 201 199 196 211 215 215
147 151 130 118 112 94 93 87 73 72 71 64 58 63 69 75 71 74 67 61 63 61 57 47 51 25 16 52 51 66 65 281 235 236 258 9 32 160 137 177 246 282 292 247 255 239 213 234 267 251 208 227 221 209 214 213 197 189 207 213 210 214
157 148 125 114 107 95 85 89 95 75 65 56 53 75 57 73 68 80 72 75 75 76 61 59 55 35 32 48 62 70 119 228 28 52 222 229 230 209 180 196 220 272 299 287 248 236 237 246 272 287 233 214 217 244 221 213 206 206 211 215 220 204
175 151 140 133 123 128 117 97 72 85 123 105 101 72 53 21 50 59 76 76 85 87 86 74 55 48 29 32 42 51 47 328 273 246 194 218 227 220 200 186 166 159 209 263 271 219 286 130 320 326 316 248 234 222 234 217 225 223 215 216 210 209
159 160 159 158 150 137 162 168 155 170 148 150 116 108 88 7 51 52 64 81 84 79 71 65 74 78 64 58 50 46 33 28 14 116 188 224 335 328 244 193 180 216 169 199 237 116 123 90 25 277 271 300 276 244 224 216 224 239 238 232 208 209
167 164 172 166 142 162 188 156 128 158 137 137 212 194 141 112 73 77 58 35 28 76 75 58 61 77 81 78 91 77 44 19 28 24 57 50 62 52 13 308 192 206 150 189 274 228 221 146 200 114 309 333 281 254 287 258 256 239 231 231 210 215
173 172 170 180 169 158 127 103 77 101 79 104 145 121 89 67 54 62 54 23 25 80 92 86 85 91 81 84 95 99 83 53 29 26 53 60 46 55 57 6 358 309 281 66 204 295 123 157 169 125 229 233 220 151 274 264 244 250 211 214 207 224
175 176 176 183 154 131 111 88 91 76 74 64 40 36 54 38 22 57 83 64 37 17 76 104 91 96 111 101 86 93 81 60 47 28 52 59 49 45 73 99 65 50 81 322 285 298 347 180 187 209 197 210 325 241 226 234 337 276 189 206 220 221
175 173 172 174 153 149 147 141 132 127 132 103 115 111 178 196 193 146 171 238 318 357 346 79 61 92 102 97 71 75 83 76 56 40 42 56 53 40 30 42 35 74 86 168 302 316 308 210 230 237 221 244 153 41 323 311 27 275 329 233 244 218
177 175 168 164 165 152 150 157 162 165 164 164 162 227 242 230 161 211 96 149 221 355 40 57 56 61 69 81 86 71 73 70 66 56 53 54 43 33 19 26 16 44 29 16 57 45 10 354 213 231 238 260 289 222 105 20 322 359 318 322 327 255
180 173 169 159 169 167 160 167 161 158 161 156 169 188 197 197 168 130 111 108 34 20 6 37 83 61 84 95 90 73 71 66 59 45 54 50 50 33 44 29 39 40 43 42 35 38 12 358 18 343 21 210 225 229 236 241 208 332 300 307 304 324
181 173 167 166 167 181 167 169 166 157 160 177 162 165 162 144 147 137 122 94 82 31 30 29 68 105 86 88 89 92 74 66 62 54 56 52 45 44 42 36 27 29 29 25 33 27 32 18 18 8 355 9 319 297 304 258 227 207 238 274 280 277
184 181 171 171 174 179 176 162 159 168 162 168 148 127 138 148 163 152 158 162 112 88 50 65 49 79 91 85 88 80 78 80 83 78 68 63 53 46 38 40 36 38 33 38 22 31 37 22 19 2 22 354 353 343 335 328 300 280 248 226 256 273
186 181 175 175 177 182 181 173 169 170 164 162 164 149 141 155 156 149 183 194 162 183 149 132 37 68 86 102 97 92 98 97 87 79 75 68 60 64 53 50 35 36 39 42 28 27 28 27 17 16 12 13 3 348 334 315 301 290 294 290 295 272
182 184 182 179 180 186 179 186 175 168 165 167 162 164 170 174 180 180 188 189 199 163 187 89 53 69 69 90 93 83 80 75 71 76 78 93 84 75 66 54 41 41 35 37 39 42 38 28 21 18 14 2 353 332 318 321 329 317 310 291 284 286
190 185 185 181 185 186 185 187 177 172 168 163 168 173 179 176 178 177 181 170 160 196 212 165 217 148 167 114 99 81 68 71 62 59 64 60 55 52 48 49 47 41 35 36 27 37 42 31 36 33 358 352 354 353 346 334 323 319 302 286 286 293
193 185 182 183 186 186 197 191 181 173 169 164 174 177 182 179 182 182 178 175 175 185 187 197 190 197 187 151 102 115 111 107 114 103 90 82 63 52 48 48 40 35 32 21 27 33 30 20 31 26 18 14 3 354 353 350 344 333 324 313 293 287
190 188 185 188 184 189 195 199 190 180 170 172 173 179 186 184 175 177 190 177 183 177 181 197 196 204 152 133 128 123 131 132 127 92 85 76 87 83 72 63 50 38 29 16 29 28 23 20 17 10 16 15 1 7 356 354 355 352 344 335 318 297
192 188 189 187 189 188 194 195 194 180 181 176 176 174 179 182 182 181 179 180 184 186 194 181 187 147 163 143 136 124 102 102 85 70 57 64 69 73 79 88 85 70 47 0 30 30 16 21 8 1 4 4 20 3 352 358 356 353 351 340 338 332
195 190 192 192 190 191 189 186 200 193 177 175 172 178 184 185 182 186 182 186 177 191 176 164 171 160 148 133 133 130 121 103 88 85 72 73 74 67 63 55 45 44 56 24 71 26 7 22 357 351 356 3 357 348 345 350 351 350 342 340 337 332